This is the latest recevied weather packets stored in our database for station/object KI5UTS-13. If no packets are shown the sender has not sent any weather packets the latest 10 day(s).
| Time | Temp. | Humidity | Pressure | Rain* | Wind** | Luminosity | Snow |
|---|---|---|---|---|---|---|---|
| 1788478893 | 32.22° C | 66% | 1015.3 hPa | 0 mm | - | 40 W/m² | - |
| 1788478589 | 32.22° C | 66% | 1015.5 hPa | 0 mm | - | 44 W/m² | - |
| 1788478285 | 32.22° C | 65% | 1015.3 hPa | 0 mm | - | 47 W/m² | - |
| 1788477979 | 32.22° C | 65% | 1015.4 hPa | 0 mm | - | 60 W/m² | - |
| 1788477674 | 32.78° C | 64% | 1015.1 hPa | 0 mm | - | 43 W/m² | - |
| 1788477363 | 32.78° C | 64% | 1015.4 hPa | 0 mm | - | 56 W/m² | - |
| 1788477063 | 32.78° C | 63% | 1015.2 hPa | 0 mm | - | 115 W/m² | - |
| 1788476759 | 32.78° C | 63% | 1015.1 hPa | 0 mm | - | 129 W/m² | - |
| 1788476457 | 33.33° C | 62% | 1014.9 hPa | 0 mm | - | 139 W/m² | - |
| 1788476154 | 33.33° C | 62% | 1014.9 hPa | 0 mm | - | 148 W/m² | - |
| 1788475851 | 33.33° C | 64% | 1014.8 hPa | 0 mm | - | 159 W/m² | - |
| 1788475547 | 33.33° C | 63% | 1014.6 hPa | 0 mm | - | 193 W/m² | - |
| 1788475243 | 33.33° C | 62% | 1014.7 hPa | 0 mm | - | 216 W/m² | - |
| 1788474937 | 33.89° C | 62% | 1014.7 hPa | 0 mm | - | 229 W/m² | - |
| 1788474636 | 33.33° C | 62% | 1014.7 hPa | 0 mm | - | 246 W/m² | - |
| 1788474331 | 33.33° C | 62% | 1014.6 hPa | 0 mm | - | 281 W/m² | - |
| 1788474030 | 33.33° C | 62% | 1014.6 hPa | 0 mm | - | 298 W/m² | - |
| 1788473726 | 33.89° C | 62% | 1014.7 hPa | 0 mm | - | 333 W/m² | - |
| 1788473427 | 33.33° C | 62% | 1014.6 hPa | 0 mm | - | 389 W/m² | - |
| 1788473122 | 33.33° C | 61% | 1014.8 hPa | 0 mm | - | 399 W/m² | - |
| 1788472816 | 33.33° C | 61% | 1014.8 hPa | 0 mm | - | 393 W/m² | - |
| 1788472511 | 33.33° C | 63% | 1014.6 hPa | 0 mm | - | 301 W/m² | - |
| 1788472210 | 33.89° C | 61% | 1014.8 hPa | 0 mm | - | 302 W/m² | - |
| 1788471905 | 33.89° C | 62% | 1014.7 hPa | 0 mm | - | 246 W/m² | - |
| 1788471604 | 33.89° C | 60% | 1014.7 hPa | 0 mm | - | 345 W/m² | - |
* Rain latest hour (hover to see other rain measurements)
** Current wind speed in m/s (hover to see current wind gust speed)